Vertical_Velocity
2 -3 2 -2 -3 2 1 12 -2 14 2 -4 17 -2 1 -1 13 0 1 -0 -1 -0 -0 -2 1 1 1 -0 0 1 1 -0 -0 -2 -0 -1 -0 -0 0 -0 3 1 1
-4 -2 -2 -2 4 3 0 2 -0 -1 2 8 24 -2 -7 -5 -2 3 0 1 1 -1 -3 -3 -1 1 1 1 -0 2 -1 -1 -0 -1 -4 -2 -2 -1 -0 -1 1 0 -1
2 3 -1 6 1 -1 5 -1 -1 -2 2 6 8 18 5 2 0 2 -4 0 1 0 0 -3 -2 -3 3 4 8 12 10 3 3 4 -1 -0 0 -4 -5 -3 0 -1 -1
-3 -5 3 0 2 8 -3 3 0 1 -3 -2 1 3 -3 -2 14 -3 -4 2 -0 8 3 2 4 4 3 10 15 17 10 16 11 13 20 7 12 -0 2 -1 -0 -3 1
4 1 -1 2 2 -3 3 1 1 -1 0 1 -0 0 -5 3 -3 -11 -12 3 2 -6 6 9 6 10 1 1 4 2 3 1 2 0 5 -3 4 1 -0 10 0 -1 2
2 1 4 -3 1 0 2 -0 3 2 -1 -1 5 -1 1 1 1 11 11 6 6 14 6 4 7 -3 46 14 3 -1 -2 0 -2 -5 -5 -0 3 3 3 5 3 -1 2
-4 0 7 0 9 9 2 1 3 1 3 3 4 0 -2 3 3 6 9 3 -2 -4 -4 -4 -2 6 4 5 1 14 5 -1 -1 -2 -2 4 7 0 7 11 9 -3 -1
-7 2 4 5 2 -3 -1 3 2 4 1 5 2 2 0 1 -2 -3 1 1 1 -1 -3 -3 -3 1 -0 2 -2 29 1 -1 2 0 -3 9 5 4 4 3 -4 -4 0
-12 0 3 -2 -0 -4 -1 3 -0 3 1 4 -1 -0 -4 -3 -3 -1 -2 -2 2 -0 -3 -1 -0 -2 0 0 -3 4 0 -0 -0 4 -1 1 5 -6 -4 -3 -1 -2 1
-3 7 -0 -1 2 4 3 -1 2 1 -1 1 3 2 -5 -3 -3 -1 -1 -0 -3 -2 -2 -4 -1 -0 -1 -0 -0 2 -3 -0 -0 1 -2 1 0 1 0 1 -1 -3 -4
-1 -3 2 -1 1 -0 -1 2 4 1 4 4 -2 -1 -3 -2 -2 -1 -1 -1 2 0 -4 -2 1 0 0 1 1 -1 2 -1 -1 -4 -1 1 1 -2 1 -2 1 2 -2
0 2 5 3 1 6 7 1 -1 -2 -3 -6 2 -0 -0 -1 -1 -0 -2 -1 -2 -1 -3 -3 -4 -3 -0 -1 -0 -0 -3 1 -1 1 3 2 1 3 1 1 -1 2 4
-1 -2 1 -1 -1 2 1 0 0 3 -3 3 -5 -5 -3 -3 -4 -3 -3 -2 1 -0 -2 -1 1 -2 1 -1 -2 -0 -1 -1 -0 3 -2 -2 1 1 2 0 3 -2 -4
0 1 -3 4 0 2 4 1 -2 2 2 -2 -1 -1 -2 -4 -5 -3 -2 -3 -3 -2 -3 -3 -3 -3 -5 -0 3 1 -0 1 -3 3 1 -2 2 0 2 0 1 -0 -0
2 1 -0 3 7 7 2 3 3 0 -0 0 -3 -2 -2 -4 -4 -3 -2 -1 -1 -2 -2 -1 0 -0 0 1 -1 -1 -1 -3 -3 2 2 -0 -0 -0 -2 -0 1 3 -0
3 5 4 4 5 3 2 0 2 2 1 -1 -3 -2 -4 -3 -3 -3 -1 -1 -0 0 -2 -2 -1 -1 -0 1 0 2 0 1 3 1 2 3 2 3 0 0 2 1 2
-1 1 3 3 3 2 3 1 3 3 1 0 1 -0 -1 -1 -1 -1 -2 -2 -1 -2 -2 -1 -1 -1 -1 -1 -2 -0 -0 -1 -0 -0 0 1 5 3 3 4 2 2 2
-1 0 0 2 -0 2 -3 -0 -0 0 0 -0 1 -1 -1 1 -1 -1 -1 -2 -4 -3 -2 -2 -2 -3 -2 -0 -1 -1 -1 -1 -2 -0 2 0 -0 1 2 -0 2 4 1
-0 -0 -3 0 4 -2 1 1 -0 -1 1 1 -0 -1 -0 -2 -1 -2 -2 -1 -2 -2 -1 -1 -1 -0 -2 0 -1 -1 -2 -0 -1 -2 -1 3 2 2 -1 -1 0 -3 -2
1 3 6 -1 -3 -1 1 1 0 1 -1 0 1 -0 -0 -0 -2 -2 -1 -1 -1 -2 -1 -3 -2 -2 -3 -1 -1 0 -2 -1 -2 -2 1 -2 -2 1 -0 3 4 -2 2
4 -2 -0 -4 -5 4 -2 -1 3 -0 4 1 1 1 -1 -2 -1 -1 0 1 -1 -1 -1 -1 -2 -2 -1 -3 -1 -2 -1 1 3 0 2 3 1 0 1 2 0 1 1
1 -0 2 3 2 1 2 2 -2 -3 -3 -1 1 1 1 -0 -2 -1 -1 0 1 -1 -1 -1 -2 -1 -0 -1 -0 1 -1 -0 -1 0 -1 -3 3 -1 0 2 2 2 2
3 1 1 1 3 2 1 -0 -1 -0 1 1 -1 -1 -0 -2 -1 -1 -1 -1 -1 -0 -1 1 -2 -1 -1 -1 -2 0 -2 -2 -1 1 1 2 5 4 1 1 2 2 2
1 1 -1 -1 -0 0 0 1 0 -2 -2 -1 -1 -1 -1 -1 -1 -3 -2 -1 0 0 -2 -2 0 -2 0 -0 -1 -2 -0 -1 -1 0 1 -1 -1 -0 -1 0 1 6 0
-0 1 3 2 1 -0 -1 -0 0 0 0 1 0 -1 -1 -1 -1 -2 -1 -1 -2 -1 -1 -5 0 -2 -3 0 1 -0 -1 -1 -2 -1 -0 3 1 1 1 -1 2 2 0
0 0 0 1 1 1 -0 -0 0 0 -0 -1 -1 -1 -1 -0 -1 -2 -1 -1 -1 -0 0 -2 1 -2 -2 -1 0 -0 -1 -1 0 -0 1 -2 6 0 1 2 2 1 1
Height
5750 5759 5768 5777 5784 5792 5799 5805 5811 5815 5820 5824 5828 5834 5837 5839 5841 5843 5845 5846 5847 5849 5850 5850 5850 5852 5853 5853 5852 5852 5852 5851 5850 5850 5850 5850 5848 5846 5845 5844 5842 5839 5838
5742 5752 5761 5770 5779 5786 5793 5798 5805 5810 5817 5821 5819 5824 5827 5829 5832 5836 5839 5841 5842 5844 5843 5843 5844 5846 5847 5846 5845 5843 5842 5843 5843 5842 5843 5843 5842 5839 5838 5836 5835 5833 5831
5737 5745 5755 5764 5772 5780 5786 5792 5797 5804 5811 5814 5817 5817 5819 5823 5827 5829 5831 5834 5836 5837 5838 5837 5837 5838 5839 5838 5837 5836 5834 5833 5833 5832 5832 5834 5834 5832 5830 5828 5827 5826 5824
5729 5740 5750 5758 5766 5774 5779 5785 5790 5796 5801 5806 5810 5810 5814 5816 5816 5821 5825 5825 5828 5829 5829 5830 5829 5829 5829 5829 5828 5827 5826 5825 5824 5825 5825 5824 5824 5823 5822 5818 5817 5818 5816
5726 5736 5746 5754 5760 5766 5774 5779 5784 5788 5793 5798 5802 5805 5807 5809 5810 5816 5817 5817 5818 5820 5819 5819 5819 5819 5819 5819 5816 5816 5817 5817 5817 5816 5815 5814 5815 5814 5811 5809 5810 5809 5807
5722 5732 5740 5746 5752 5760 5768 5774 5779 5784 5787 5791 5793 5796 5800 5803 5806 5808 5808 5808 5807 5808 5807 5809 5810 5811 5807 5811 5810 5808 5808 5808 5808 5806 5806 5805 5805 5804 5803 5802 5801 5801 5799
5714 5725 5736 5742 5749 5755 5761 5769 5773 5778 5779 5783 5785 5789 5793 5796 5797 5799 5798 5797 5796 5797 5798 5800 5801 5803 5801 5799 5800 5799 5799 5799 5800 5798 5797 5797 5796 5795 5794 5792 5791 5791 5791
5713 5721 5728 5737 5742 5747 5752 5758 5765 5770 5772 5775 5778 5782 5784 5786 5787 5789 5789 5788 5787 5788 5787 5788 5790 5791 5791 5790 5790 5791 5789 5790 5791 5789 5788 5789 5788 5786 5785 5783 5782 5781 5782
5711 5713 5721 5729 5735 5742 5745 5749 5756 5762 5765 5767 5770 5773 5775 5776 5776 5777 5778 5778 5776 5776 5776 5777 5778 5779 5780 5780 5782 5780 5780 5780 5780 5779 5778 5778 5777 5777 5776 5775 5772 5771 5772
5702 5708 5717 5722 5728 5733 5737 5742 5748 5754 5757 5759 5761 5764 5765 5766 5766 5766 5765 5765 5764 5763 5764 5765 5768 5768 5769 5769 5769 5770 5769 5769 5769 5768 5768 5768 5766 5765 5764 5763 5763 5762 5762
5696 5702 5708 5713 5717 5725 5730 5734 5739 5744 5748 5751 5753 5754 5755 5755 5755 5755 5753 5752 5752 5752 5752 5753 5755 5757 5758 5758 5759 5759 5757 5758 5758 5757 5757 5757 5756 5755 5754 5754 5752 5751 5750
5689 5695 5701 5708 5713 5717 5721 5725 5729 5734 5738 5742 5745 5745 5745 5744 5743 5742 5741 5741 5741 5741 5741 5742 5743 5744 5745 5745 5746 5746 5745 5745 5745 5746 5745 5745 5744 5744 5744 5742 5741 5740 5740
5683 5689 5695 5701 5705 5709 5713 5717 5720 5725 5730 5732 5734 5735 5734 5734 5733 5733 5733 5734 5733 5733 5733 5731 5731 5731 5731 5731 5732 5732 5731 5730 5731 5731 5731 5731 5731 5731 5731 5731 5730 5730 5730
5675 5682 5688 5692 5697 5701 5703 5708 5713 5716 5720 5723 5724 5724 5725 5725 5725 5725 5726 5725 5725 5724 5723 5721 5719 5719 5719 5718 5718 5718 5717 5717 5718 5718 5717 5718 5719 5719 5719 5719 5719 5718 5717
5670 5675 5681 5685 5688 5692 5696 5700 5703 5707 5710 5713 5714 5715 5716 5717 5717 5717 5717 5717 5716 5715 5714 5712 5711 5709 5708 5706 5705 5704 5704 5705 5706 5705 5703 5704 5706 5706 5706 5706 5706 5705 5705
5665 5669 5673 5679 5683 5685 5689 5692 5695 5697 5701 5703 5704 5706 5707 5708 5709 5709 5709 5708 5707 5706 5704 5702 5700 5699 5697 5695 5694 5692 5691 5691 5690 5691 5690 5690 5691 5691 5692 5692 5693 5693 5691
5659 5663 5667 5670 5674 5677 5680 5684 5688 5690 5692 5694 5695 5697 5699 5700 5700 5700 5699 5699 5698 5696 5693 5691 5689 5687 5684 5682 5681 5680 5679 5678 5678 5678 5677 5677 5678 5677 5678 5678 5678 5678 5678
5653 5657 5660 5663 5668 5670 5674 5677 5680 5681 5682 5684 5686 5688 5690 5690 5690 5690 5689 5688 5687 5685 5683 5681 5678 5674 5671 5670 5669 5668 5667 5666 5665 5664 5664 5665 5665 5666 5666 5666 5665 5665 5665
5649 5652 5655 5658 5661 5664 5667 5669 5670 5671 5674 5676 5678 5679 5680 5680 5680 5680 5679 5677 5676 5674 5672 5670 5667 5663 5661 5659 5658 5657 5655 5654 5653 5652 5651 5652 5654 5655 5655 5655 5655 5655 5655
5641 5644 5647 5650 5653 5656 5658 5659 5661 5663 5665 5667 5669 5670 5670 5670 5670 5670 5669 5667 5666 5664 5661 5658 5655 5653 5651 5649 5647 5646 5644 5644 5643 5642 5641 5642 5643 5644 5644 5644 5644 5644 5645
5635 5636 5639 5641 5643 5646 5648 5650 5653 5655 5657 5658 5659 5660 5660 5660 5661 5660 5659 5657 5655 5653 5651 5648 5646 5643 5641 5639 5637 5635 5634 5633 5632 5632 5632 5631 5632 5632 5632 5633 5633 5635 5634
5629 5630 5632 5635 5637 5639 5641 5643 5644 5647 5648 5649 5649 5649 5650 5650 5650 5650 5649 5647 5645 5643 5641 5639 5637 5634 5632 5630 5628 5626 5624 5622 5621 5621 5621 5622 5622 5622 5622 5622 5623 5624 5625
5622 5623 5625 5626 5628 5630 5632 5633 5634 5636 5637 5638 5638 5639 5639 5639 5639 5638 5637 5636 5634 5633 5631 5630 5627 5625 5623 5620 5618 5617 5615 5613 5611 5610 5610 5610 5611 5612 5612 5612 5613 5614 5614
5615 5616 5617 5619 5620 5621 5623 5624 5625 5626 5627 5627 5628 5628 5628 5628 5628 5627 5627 5625 5624 5622 5621 5619 5617 5615 5613 5611 5609 5607 5605 5603 5602 5602 5601 5600 5600 5600 5601 5602 5604 5604 5605
5607 5608 5609 5610 5612 5613 5614 5615 5615 5616 5616 5617 5617 5618 5618 5618 5617 5616 5616 5614 5613 5612 5610 5609 5607 5605 5603 5601 5600 5598 5596 5594 5593 5592 5591 5591 5591 5591 5592 5594 5594 5595 5596
5600 5600 5601 5602 5603 5604 5604 5605 5606 5606 5607 5608 5608 5608 5608 5607 5606 5606 5605 5604 5603 5601 5600 5599 5597 5595 5593 5591 5590 5589 5587 5585 5584 5583 5582 5582 5582 5583 5583 5584 5585 5586 5587